{"data":{"norad_id":48140,"epoch":"2026-09-19T18:02:32.108928Z","epoch_age_seconds":93785,"freshness":"FRESH","line1":"1 48140U 21027BA  26262.75176052  .00006087  00000+0  20768-3 0  9996","line2":"2 48140  53.1608 342.5471 0001275  72.3130 287.8010 15.31714705302240","mean_motion":15.31714705,"eccentricity":0.0001275,"inclination_deg":53.1608,"raan_deg":342.5471,"arg_perigee_deg":72.313,"mean_anomaly_deg":287.801,"bstar":0.00020768,"rev_number":30224,"period_min":94.012285401412,"perigee_km":469.82293450853,"apogee_km":471.56938696452,"semimajor_km":6848.8331607365,"source":"CELESTRAK","updated_at":"2026-09-20T09:00:38.925210Z"}}